Retour au catalogue

STARLINK-5534

ActifCommunicationsVLEO
NORAD 56477·PAYLOAD·🇺🇸 United States

Lancé May 10, 2023 depuis Vandenberg Space Force Base

Loading…

Prochains Passages (prochaines 24 heures)

TLE

FraisSource: CelesTrak SupGP

Époque: Sep 14, 2026, 20:58 UTC

1 56477C 23064AF  26257.87409722 -.00032371  00000+0 -27129-2 0  2572
2 56477  70.0018   7.3791 0003155 272.6819 288.0584 14.98346404    12

Suivez STARLINK-5534 en temps réel avec AllMySat

Download on the App Store